Content
SEND FEEDBACK

Daily
Averages
Monthly
Summary
Canada

VANCOUVER - CITY HALL, BRITISH COLUMBIA


Home > North America > Canada > British Columbia
Elevation: 283 feet     Latitude: 49 17N     Longitude: 123 07W

WEATHER
 
SELECT A DAY
Number of Records: 171,833;   Date Range: 4/23/95 - 9/30/14
 
SHARE

PRINT THIS DATA

[ ← Previous Day ]
WEATHER ALMANAC - NOVEMBER 9, 2013
[ Next Day → ]
[ °C ]   °F
Weather ElementAverageHighLow
Temperature45 °F47.5 °F (10:00 am)43.5 °F (8:00 pm)
Dewpoint41.2 °F44.2 °F (2:00 pm)39.7 °F (5:00 pm)
Humidity85.9 %93 % (2:00 am)74 % (10:00 am)
Barometer30.14 in30.16 in (1:00 am)30.13 in (9:00 am)
Wind Speed1.9 mph3.5 mph (3:00 am)
Weather ElementAverage
Wind DirectionENE (59.6 °)

Weather ElementTotal
Precipitation0.09 in
Heating Degree Days19.5 (Base 65)
Averaged from 27 records on November 9, 2013
WEATHER CONDITIONS BREAKOUT
WIND DIRECTION BREAKOUT
WEATHER BY HOUR - NOVEMBER 9, 2013
[ °C ]   °F
Local TimeTemperatureDewpointHumidityBarometerVisibilityWind DirectionWind SpeedGust SpeedPrecipitationEventsConditions
1:00 AM45.5 °F41.0 °F84 %30.16 inEast (80°)2.3 mph
2:00 AM44.2 °F42.3 °F93 %30.16 inNE (50°)1.2 mph0.04 in
3:00 AM44.2 °F41.7 °F91 %30.16 inENE (70°)3.5 mph0.04 in
4:00 AM44.0 °F41.0 °F87 %30.16 inNE (50°)2.3 mph
4:00 AM44.2 °F41.4 °F90 %30.16 inNE (50°)2.3 mph
5:00 AM44.2 °F41.4 °F90 %30.16 inNE (50°)3.5 mph
6:00 AM45.1 °F40.3 °F83 %30.14 inENE (70°)3.5 mph
7:00 AM45.5 °F40.3 °F82 %30.14 inENE (70°)3.5 mph
8:00 AM45.3 °F41.2 °F85 %30.14 inENE (70°)2.3 mph
9:00 AM46.2 °F41.7 °F84 %30.13 inCalm
10:00 AM47.0 °F41.0 °F74 %30.14 inCalm
10:00 AM47.5 °F41.4 °F79 %30.14 inCalm
11:00 AM46.2 °F42.6 °F87 %30.14 inWSW (240°)1.2 mph
12:00 PM46.9 °F43.3 °F87 %30.13 inSSW (210°)1.2 mph
1:00 PM46.8 °F43.3 °F88 %30.13 inCalm
2:00 PM46.6 °F44.2 °F92 %30.13 inCalm
3:00 PM45.1 °F41.2 °F86 %30.13 inNorth (10°)3.5 mph0.01 in
4:00 PM45.0 °F41.0 °F79 %30.13 inNNE (30°)3.5 mph
4:00 PM44.8 °F40.6 °F85 %30.13 inNNE (30°)3.5 mph
5:00 PM44.1 °F39.7 °F85 %30.13 inNorth (360°)2.3 mph
6:00 PM43.9 °F40.6 °F88 %30.14 inNNE (20°)2.3 mph
7:00 PM43.9 °F40.5 °F88 %30.14 inNNE (30°)1.2 mph
8:00 PM43.5 °F40.6 °F90 %30.14 inNorth (10°)1.2 mph
9:00 PM44.1 °F40.5 °F87 %30.15 inNorth (10°)1.2 mph
10:00 PM44.0 °F40.0 °F81 %30.14 inNNE (20°)2.3 mph
10:00 PM44.4 °F40.1 °F85 %30.14 inNNE (20°)2.3 mph
11:00 PM43.7 °F40.6 °F89 %30.16 inCalm
Hourly data recorded from CWWA, located miles away from Vancouver - City Hall, British Columbia







STORIES FROM OUR PARTNERS